Simultaneous Nadir Overpasses (SNOs) Predictions

Prediction of SNOs between LANDSAT-8 and TERRA Satellite Orbit:

Table of predicted SNOs for the next 14.0 days since TLE Epoch: 10/18/2025
Index Date (LANDSAT-8) Time (LANDSAT-8) Lat,Lon (LANDSAT-8) SZA (LANDSAT-8 ) Date (TERRA) Time (TERRA) Lat,Lon (TERRA) SZA (TERRA ) Distance(km) Time Diff (sec)
1 10/19/2025 08:32:34 81.83, 113.22 96.59 10/19/2025 08:33:45 81.83, 113.30 96.64 1.30 71
2 10/19/2025 09:22:00 -81.83, -78.91 83.38 10/19/2025 09:23:04 -81.83, -79.09 83.36 2.94 64
3 10/19/2025 10:11:27 81.83, 88.51 96.61 10/19/2025 10:12:23 81.83, 88.60 96.66 1.32 56
4 10/19/2025 11:00:53 -81.83,-103.61 83.35 10/19/2025 11:01:42 -81.83,-103.79 83.34 2.95 49
5 10/19/2025 11:50:20 81.83, 63.81 96.64 10/19/2025 11:51:01 81.83, 63.90 96.68 1.35 41
6 10/19/2025 12:39:46 -81.83,-128.31 83.32 10/19/2025 12:40:20 -81.83,-128.49 83.32 2.98 34
7 10/19/2025 13:29:13 81.83, 39.11 96.67 10/19/2025 13:29:39 81.83, 39.19 96.70 1.40 26
8 10/19/2025 14:18:39 -81.83,-153.01 83.29 10/19/2025 14:18:58 -81.83,-153.20 83.30 3.01 19
9 10/19/2025 15:08:06 81.83, 14.41 96.70 10/19/2025 15:08:17 81.83, 14.49 96.72 1.46 11
10 10/19/2025 15:57:32 -81.83,-177.71 83.27 10/19/2025 15:57:36 -81.83,-177.90 83.28 3.05 4
11 10/19/2025 16:46:59 81.83, -10.29 96.72 10/19/2025 16:46:55 81.83, -10.21 96.74 1.54 4
12 10/19/2025 17:36:25 -81.83, 157.59 83.24 10/19/2025 17:36:14 -81.84, 157.40 83.27 3.10 11
13 10/19/2025 18:25:51 81.83, -34.57 96.81 10/19/2025 18:25:32 81.82, -34.49 96.80 1.46 19
14 10/19/2025 19:15:18 -81.83, 132.88 83.21 10/19/2025 19:14:52 -81.84, 132.70 83.25 3.16 26
15 10/19/2025 20:04:44 81.83, -59.27 96.83 10/19/2025 20:04:10 81.82, -59.20 96.82 1.38 34
16 10/19/2025 20:54:10 -81.83, 108.61 83.13 10/19/2025 20:53:29 -81.82, 108.41 83.18 3.20 41
17 10/19/2025 21:43:37 81.83, -83.97 96.86 10/19/2025 21:42:48 81.82, -83.90 96.84 1.31 49
18 10/19/2025 22:33:03 -81.83, 83.91 83.10 10/19/2025 22:32:07 -81.83, 83.71 83.16 3.19 56
19 10/19/2025 23:22:30 81.83,-108.68 96.89 10/19/2025 23:21:26 81.82,-108.60 96.86 1.26 64



Historial Predications of SNOs between LANDSAT-8 and TERRA
